Regional Weather Roundup
Issued by NWS

Home | Current Version | Previous Version | Text Only | Print | Product List | Glossary Off
Versions: 1 2 3 4 5 6 7 8 9 10 11 12 13 14 15 16 17 18 19 20 21 22 23 24 25 26 27 28 29 30 31 32 33 34 35 36 37 38 39 40 41 42 43 44 45 46 47 48 49 50

995
ASUS43 KIND 300209
RWRIN

WEATHER ROUNDUP FOR INDIANA
NATIONAL WEATHER SERVICE INDIANAPOLIS IN
1000 PM EDT FRI APR 29 2016

NOTE: "FAIR" INDICATES FEW OR NO CLOUDS BELOW 12,000 FEET WITH NO
SIGNIFICANT WEATHER AND/OR OBSTRUCTIONS TO VISIBILITY.

* - STATION DOES NOT REPORT WEATHER SUCH AS PRECIPITATION OR FOG.

+ - STATION NOT QUALITY CONTROLLED BY THE NATIONAL WEATHER SERVICE.
    USE DATA WITH CAUTION...ESPECIALLY DEWPOINT AND RELATIVE
    HUMIDITY OBSERVATIONS.

INZ001>003-010>013-019-020-300300-
NORTHWEST INDIANA

CITY           SKY/WX    TMP DP  RH WIND       PRES   REMARKS
GARY /AIRPORT/ CLOUDY    43  43 100 NE8       30.15S
KNOX *+        CLOUDY    45  37  76 N7        30.13S
LA PORTE +     CLOUDY    46  45  97 N8        30.14S
MICHIGAN CITY+ CLOUDY    43  43 100 N3        30.14F
MONTICELLO +   CLOUDY    50  43  78 N8        30.11S
RENSSELAER +   CLOUDY    46  45  93 N6        30.12R
VALPARAISO     CLOUDY    43  40  89 N5        30.14S

$$

LMZ046-743>745-300300-
SOUTHERN LAKE MICHIGAN

STATION/POSITION TIME  TEMP    WIND        PRES    WAVE
                       AIR SEA DIR/SP/G            HT
                 (UTC) (F)     (DEG/KT/KT) (MB)    (FT)
BURNS HARBOR     0100   42      30/  7/ 10 1021.3R
MICHIGAN CITY    0100   42     360/  8/  9   N/A

$$

INZ004-005-014>016-021>024-300300-
NORTH CENTRAL INDIANA

CITY           SKY/WX    TMP DP  RH WIND       PRES   REMARKS
GOSHEN         CLOUDY    50  46  86 NE5       30.12S
LOGANSPORT +   PTCLDY    50  46  87 N6        30.12R
PERU/GRISSOM   PTCLDY    50  46  87 N5        30.10R
ROCHESTER +    CLOUDY    52  48  87 N3        30.12S
SOUTH BEND     CLOUDY    47  44  90 N6        30.14S
WARSAW +       CLOUDY    50  45  81 E5        30.12S

$$

INZ006>009-017-018-025>027-300300-
NORTHEAST INDIANA

CITY           SKY/WX    TMP DP  RH WIND       PRES   REMARKS
ANGOLA *+      CLOUDY    52  39  62 E8        30.14R
AUBURN +       MOCLDY    50  45  81 CALM      30.13S
FORT WAYNE     CLOUDY    51  45  79 CALM      30.13R
HUNTINGTON +   CLOUDY   N/A N/A N/A E5        30.12S

$$

INZ028-029-035-036-043>045-051>053-300300-
WEST CENTRAL INDIANA

CITY           SKY/WX    TMP DP  RH WIND       PRES   REMARKS
CRAWFORDSVL +  CLOUDY    52  49  88 NE9       30.08S
GREENCASTLE +  CLOUDY    55  52  88 NE7       30.08R
LAFAYETTE      PTCLDY    50  44  80 NE6       30.10S
TERRE HAUTE    CLOUDY    60  50  69 NE8       30.06R

$$

INZ030>032-037>040-046>048-054>057-064-065-300300-
CENTRAL INDIANA

CITY           SKY/WX    TMP DP  RH WIND       PRES   REMARKS
CP ATTERBURY + CLOUDY    59  50  72 NE5       30.08R
COLUMBUS       CLEAR     59  54  82 NE6       30.08R
FRANKFORT +      N/A     52  41  65 NE8       30.11S
GREENWOOD *+   MOCLDY    59  48  67 NE7       30.08R
INDIANAPOLIS   CLOUDY    58  47  66 NE10      30.06R
-EAGLE CREEK   CLOUDY    58  48  69 NE7       30.08R
KOKOMO *+      CLOUDY    52  45  76 NE5       30.11R
MARION +       CLOUDY    52  46  79 E8        30.13R
SHELBYVILLE    MOCLDY    60  49  66 NE6       30.07R
ZIONSVILLE +   PTCLDY    53  48  83 NE7       30.10S

$$

INZ033-034-041-042-049-050-058-059-300300-
EAST CENTRAL INDIANA

CITY           SKY/WX    TMP DP  RH WIND       PRES   REMARKS
MUNCIE         CLOUDY    53  46  77 NE9       30.12R

$$

INZ060-061-067>069-081>083-085>088-300300-
SOUTHWEST INDIANA

CITY           SKY/WX    TMP DP  RH WIND       PRES   REMARKS
EVANSVILLE     CLOUDY    63  53  70 NE6       30.00S
HUNTINGBURG *+ CLOUDY    61  54  77 NE10      30.02S
WASHINGTON +   CLOUDY    62  56  81 CALM      30.03S

$$

INZ062-063-066-070>080-084-089>092-300300-
SOUTH CENTRAL AND SOUTHEAST INDIANA

CITY           SKY/WX    TMP DP  RH WIND       PRES   REMARKS
BEDFORD +      CLOUDY    61  59  94 NE6       30.04S
BLOOMINGTON    CLOUDY    62  48  60 NE7       30.06R
MADISON *+     CLOUDY    61  52  72 NE3       30.08S
NORTH VERNON + LGT RAIN  61  57  88 CALM      30.08R
SEYMOUR +      CLOUDY    63  54  72 NE3       30.06R

$$





USA.gov is the U.S. government's official web portal to all federal, state and local government web resources and services.